Regional Weather Roundup
Issued by NWS Nashville, TN

Home | Current Version | Previous Version | Text Only | Print | Product List | Glossary On
Versions: 1 2 3 4 5 6 7 8 9 10 11 12 13 14 15 16 17 18 19 20 21 22 23 24 25 26 27
000
ASUS44 KOHX 232110
RWROHX
MIDDLE TENNESSEE HOURLY WEATHER ROUNDUP
NATIONAL WEATHER SERVICE NASHVILLE TN
400 PM CDT MON OCT 23 2017

NOTE: "FAIR" INDICATES FEW OR NO CLOUDS BELOW 12,000 FEET WITH
NO SIGNIFICANT WEATHER AND/OR OBSTRUCTIONS TO VISIBILITY.

* THESE REPORTS ARE NOT UNDER NWS QUALITY CONTROL AND MAY NOT
  REPORT WEATHER SUCH AS PRECIPITATION AND FOG.


TNZ005>011-023>034-057-059-062>066-078-080-232200
...NORTHERN MIDDLE TENNESSEE...

CITY           SKY/WX    TMP DP  RH WIND       PRES   REMARKS
CLARKSVILLE    CLOUDY    56  43  61 W10G18    29.86F
CROSSVILLE     CLOUDY    55  50  83 W17G26    29.85R
DICKSON          N/A     55  49  80 W9        29.88F
LEBANON        PTSUNNY   56  52  86 W18       29.84S
NASHVILLE      PTSUNNY   56  51  84 W10G18    29.88R
PORTLAND       CLOUDY    54  52  94 W13G22    29.84R
SMYRNA         PTSUNNY   57  52  82 W15       29.88S
SPARTA         CLOUDY    57  54  88 W8        29.84R
SPRINGFIELD    CLOUDY    55  48  76 W12G18    29.84S
WEST NASHVILLE PTSUNNY   55  52  88 W13G21    29.86S
$$
TNZ056-058-060-061-075>077-079-093>097-232200
...SOUTHERN MIDDLE TENNESSEE...

CITY           SKY/WX    TMP DP  RH WIND       PRES   REMARKS
COLUMBIA       CLOUDY    55  50  82 VRB7      29.89S
FAYETTEVILLE   CLOUDY    59  52  77 W10G16    29.91R
PULASKI        CLOUDY    61  54  77 W9        29.91R
SHELBYVILLE    CLOUDY    59  52  77 W13G20    29.89R
TULLAHOMA      CLOUDY    57  50  77 W13       29.90R
WINCHESTER     CLOUDY    57  52  82 VRB6        N/A
$$


...KEY TO REMARKS...
VSB - VISIBILITY IN MILES
WCI - WIND CHILL INDEX
HX  - HEAT INDEX





USA.gov is the U.S. government's official web portal to all federal, state and local government web resources and services.